EWG192 EDDF-EDDL

Flight info

Callsign EWG192
Flight time 0h 27m
Altitude 22000
Route MARUN3W MARUN Y152 ARPEG Z850 ADEMI T854 DOMUX DOMUX1A
Aircraft A320/M-SDE3FGHIRWY/LB1

Departure

Time 2026-05-07 18:00
Airport Frankfurt Main Airport (EDDF)

Arrival

Time 2026-05-07 18:27
Airport Düsseldorf Airport (EDDL)
Time Latitude Longitude Altitude Speed Heading
2026-05-07 17:32 50.04996 8.57422 364 ft 0 kts 122°
2026-05-07 17:53 50.04995 8.57425 363 ft 2 kts 123°
2026-05-07 17:53 50.04987 8.57438 369 ft 0 kts 141°
2026-05-07 17:53 50.04963 8.57458 366 ft 7 kts 141°
2026-05-07 17:54 50.04936 8.57531 370 ft 11 kts 116°
2026-05-07 17:54 50.04899 8.57651 371 ft 12 kts 115°
2026-05-07 17:54 50.04865 8.57770 371 ft 12 kts 111°
2026-05-07 17:54 50.04827 8.57879 370 ft 12 kts 137°
2026-05-07 17:55 50.04746 8.57938 371 ft 13 kts 159°
2026-05-07 17:55 50.04690 8.57972 373 ft 4 kts 159°
2026-05-07 17:55 50.04686 8.57974 373 ft 0 kts 159°
2026-05-07 17:56 50.04678 8.57979 373 ft 7 kts 159°
2026-05-07 17:57 50.04627 8.58009 373 ft 8 kts 159°
2026-05-07 17:57 50.04594 8.58029 372 ft 8 kts 156°
2026-05-07 17:57 50.04576 8.58156 371 ft 10 kts 71°
2026-05-07 17:57 50.04598 8.58255 372 ft 9 kts 70°
2026-05-07 17:58 50.04620 8.58349 373 ft 10 kts 70°
2026-05-07 17:58 50.04648 8.58470 372 ft 15 kts 70°
2026-05-07 17:58 50.04591 8.58591 371 ft 16 kts 160°
2026-05-07 17:58 50.04507 8.58626 372 ft 8 kts 193°
2026-05-07 17:59 50.04489 8.58589 373 ft 0 kts 248°
2026-05-07 17:59 50.04484 8.58569 372 ft 12 kts 248°
2026-05-07 17:59 50.04353 8.58017 369 ft 93 kts 249°
2026-05-07 17:59 50.04055 8.56764 364 ft 152 kts 250°
2026-05-07 18:00 50.03648 8.55070 688 ft 171 kts 251°
2026-05-07 18:00 50.03231 8.53304 1393 ft 174 kts 250°
2026-05-07 18:00 50.02798 8.51499 1957 ft 187 kts 251°
2026-05-07 18:00 50.02114 8.49655 2372 ft 207 kts 227°
2026-05-07 18:01 50.00951 8.48374 3006 ft 213 kts 203°
2026-05-07 18:01 49.99486 8.47855 3719 ft 215 kts 189°
2026-05-07 18:01 49.98030 8.47532 4439 ft 216 kts 189°
2026-05-07 18:01 49.96504 8.47193 5163 ft 218 kts 190°
2026-05-07 18:02 49.93436 8.45879 6093 ft 247 kts 198°
2026-05-07 18:02 49.92119 8.44980 6680 ft 250 kts 217°
2026-05-07 18:02 49.91026 8.43041 7418 ft 250 kts 245°
2026-05-07 18:03 49.90636 8.40403 8286 ft 252 kts 273°
2026-05-07 18:03 49.91111 8.37800 9151 ft 255 kts 301°
2026-05-07 18:03 49.92262 8.35932 9938 ft 260 kts 328°
2026-05-07 18:03 49.93873 8.34656 10484 ft 275 kts 334°
2026-05-07 18:04 49.95710 8.33427 10782 ft 299 kts 336°
2026-05-07 18:04 49.97677 8.32190 11060 ft 321 kts 337°
2026-05-07 18:04 49.99791 8.30881 11678 ft 330 kts 337°
2026-05-07 18:04 50.01951 8.29594 12434 ft 336 kts 341°
2026-05-07 18:05 50.04260 8.28901 13196 ft 342 kts 354°
2026-05-07 18:05 50.06650 8.28706 13944 ft 346 kts 350°
2026-05-07 18:05 50.08876 8.27388 14585 ft 346 kts 323°
2026-05-07 18:05 50.10568 8.24742 15250 ft 347 kts 308°
2026-05-07 18:06 50.12131 8.21864 15943 ft 350 kts 310°
2026-05-07 18:06 50.13782 8.19057 16619 ft 353 kts 312°
2026-05-07 18:06 50.15492 8.16278 17302 ft 357 kts 313°
2026-05-07 18:06 50.17228 8.13487 17966 ft 360 kts 313°
2026-05-07 18:07 50.18976 8.10653 18583 ft 364 kts 313°
2026-05-07 18:07 50.20736 8.07783 19160 ft 367 kts 312°
2026-05-07 18:07 50.22507 8.04888 19737 ft 370 kts 312°
2026-05-07 18:07 50.24290 8.01972 20319 ft 373 kts 312°
2026-05-07 18:08 50.26114 7.98982 20909 ft 376 kts 312°
2026-05-07 18:08 50.27750 7.96289 21430 ft 379 kts 312°
2026-05-07 18:08 50.29574 7.93278 21920 ft 383 kts 312°
2026-05-07 18:08 50.31401 7.90256 22047 ft 379 kts 312°
2026-05-07 18:09 50.33188 7.87298 22051 ft 371 kts 312°
2026-05-07 18:09 50.34957 7.84375 22056 ft 369 kts 312°
2026-05-07 18:09 50.36722 7.81458 22067 ft 368 kts 312°
2026-05-07 18:09 50.38483 7.78546 22055 ft 368 kts 312°
2026-05-07 18:10 50.40245 7.75623 22060 ft 368 kts 311°
2026-05-07 18:10 50.41997 7.72717 22054 ft 368 kts 311°
2026-05-07 18:10 50.43765 7.69786 22058 ft 368 kts 312°
2026-05-07 18:10 50.45549 7.66829 22052 ft 368 kts 311°
2026-05-07 18:11 50.47312 7.63902 22053 ft 369 kts 311°
2026-05-07 18:11 50.48476 7.61966 22057 ft 368 kts 311°
2026-05-07 18:11 50.50841 7.58014 22058 ft 377 kts 311°
2026-05-07 18:11 50.52646 7.54990 22054 ft 381 kts 311°
2026-05-07 18:12 50.54466 7.51950 22053 ft 383 kts 311°
2026-05-07 18:12 50.55674 7.49935 22058 ft 383 kts 311°
2026-05-07 18:12 50.57501 7.46884 22054 ft 383 kts 311°
2026-05-07 18:12 50.59302 7.43868 22010 ft 371 kts 311°
2026-05-07 18:13 50.60212 7.42344 21942 ft 365 kts 311°
2026-05-07 18:13 50.61421 7.40322 21846 ft 356 kts 311°
2026-05-07 18:13 50.63102 7.37499 21513 ft 350 kts 311°
2026-05-07 18:13 50.64755 7.34704 21095 ft 347 kts 311°
2026-05-07 18:14 50.66395 7.31926 20665 ft 344 kts 311°
2026-05-07 18:14 50.68021 7.29177 20243 ft 342 kts 311°
2026-05-07 18:14 50.69643 7.26441 19834 ft 340 kts 311°
2026-05-07 18:14 50.71241 7.23738 19429 ft 338 kts 311°
2026-05-07 18:15 50.72862 7.20989 19024 ft 336 kts 311°
2026-05-07 18:15 50.74441 7.18305 18507 ft 332 kts 311°
2026-05-07 18:15 50.76004 7.15643 17803 ft 329 kts 311°
2026-05-07 18:15 50.77554 7.13009 17114 ft 326 kts 311°
2026-05-07 18:16 50.79090 7.10395 16460 ft 323 kts 311°
2026-05-07 18:16 50.80613 7.07802 15806 ft 320 kts 311°
2026-05-07 18:16 50.82119 7.05235 15160 ft 317 kts 311°
2026-05-07 18:16 50.83609 7.02690 14479 ft 314 kts 311°
2026-05-07 18:17 50.85088 7.00165 13809 ft 311 kts 311°
2026-05-07 18:17 50.86558 6.97660 13074 ft 309 kts 311°
2026-05-07 18:17 50.88010 6.95183 12363 ft 306 kts 311°
2026-05-07 18:17 50.89449 6.92725 11657 ft 302 kts 312°
2026-05-07 18:18 50.90871 6.90292 11000 ft 300 kts 312°
2026-05-07 18:18 50.92286 6.87865 10443 ft 300 kts 312°
2026-05-07 18:18 50.93694 6.85448 10122 ft 296 kts 312°
2026-05-07 18:18 50.95072 6.83084 9875 ft 289 kts 312°
2026-05-07 18:19 50.96424 6.80756 9520 ft 287 kts 312°
2026-05-07 18:19 50.97775 6.78429 9141 ft 285 kts 312°
2026-05-07 18:19 50.99122 6.76106 8600 ft 288 kts 312°
2026-05-07 18:19 51.00473 6.73773 8208 ft 285 kts 312°
2026-05-07 18:20 51.01808 6.71468 7822 ft 282 kts 312°
2026-05-07 18:20 51.03131 6.69179 7443 ft 280 kts 312°
2026-05-07 18:20 51.04458 6.66883 7061 ft 277 kts 312°
2026-05-07 18:20 51.05751 6.64642 6685 ft 273 kts 313°
2026-05-07 18:21 51.07016 6.62452 6305 ft 265 kts 313°
2026-05-07 18:21 51.08237 6.60328 5912 ft 256 kts 313°
2026-05-07 18:21 51.09423 6.58262 5517 ft 249 kts 313°
2026-05-07 18:21 51.10571 6.56264 5134 ft 240 kts 313°
2026-05-07 18:22 51.11644 6.54400 4764 ft 231 kts 313°
2026-05-07 18:22 51.12435 6.53220 4487 ft 223 kts 329°
2026-05-07 18:22 51.14353 6.52319 3981 ft 212 kts 358°
2026-05-07 18:22 51.15806 6.52541 3592 ft 209 kts 15°
2026-05-07 18:23 51.17127 6.53430 3226 ft 204 kts 33°
2026-05-07 18:23 51.18167 6.54814 3128 ft 187 kts 48°
2026-05-07 18:23 51.18944 6.56393 3029 ft 178 kts 52°
2026-05-07 18:23 51.19693 6.57940 2858 ft 175 kts 52°
2026-05-07 18:24 51.20440 6.59491 2638 ft 173 kts 52°
2026-05-07 18:24 51.21158 6.60985 2419 ft 172 kts 52°
2026-05-07 18:24 51.21849 6.62424 2198 ft 171 kts 52°
2026-05-07 18:24 51.22579 6.63947 1967 ft 170 kts 53°
2026-05-07 18:25 51.23282 6.65414 1794 ft 160 kts 52°
2026-05-07 18:25 51.23929 6.66764 1550 ft 146 kts 53°
2026-05-07 18:25 51.24518 6.67995 1357 ft 138 kts 53°
2026-05-07 18:25 51.25103 6.69216 1153 ft 136 kts 53°
2026-05-07 18:26 51.25671 6.70411 970 ft 134 kts 53°
2026-05-07 18:26 51.26227 6.71598 793 ft 133 kts 53°
2026-05-07 18:26 51.26796 6.72767 581 ft 133 kts 52°
2026-05-07 18:26 51.27364 6.73919 393 ft 132 kts 53°
2026-05-07 18:27 51.27812 6.74896 251 ft 131 kts 54°
2026-05-07 18:27 51.28366 6.76047 134 ft 121 kts 53°
2026-05-07 18:27 51.28729 6.76817 141 ft 63 kts 53°
2026-05-07 18:27 51.28942 6.77267 138 ft 34 kts 52°
2026-05-07 18:28 51.29019 6.77465 142 ft 17 kts 77°
2026-05-07 18:28 51.28975 6.77604 144 ft 12 kts 142°
2026-05-07 18:28 51.28964 6.77618 144 ft 0 kts 141°
2026-05-07 18:29 51.28961 6.77621 144 ft 4 kts 141°
2026-05-07 18:29 51.28902 6.77633 141 ft 11 kts 210°
2026-05-07 18:29 51.28850 6.77537 139 ft 13 kts 233°
2026-05-07 18:30 51.28792 6.77405 140 ft 13 kts 234°
2026-05-07 18:30 51.28721 6.77260 140 ft 18 kts 232°
2026-05-07 18:30 51.28646 6.77102 142 ft 19 kts 232°
2026-05-07 18:30 51.28565 6.76936 140 ft 19 kts 232°
2026-05-07 18:31 51.28481 6.76763 137 ft 20 kts 232°
2026-05-07 18:31 51.28386 6.76569 134 ft 21 kts 232°
2026-05-07 18:31 51.28303 6.76497 132 ft 12 kts 168°
2026-05-07 18:31 51.28233 6.76446 132 ft 11 kts 204°
2026-05-07 18:32 51.28165 6.76427 133 ft 9 kts 186°
2026-05-07 18:32 51.28101 6.76422 131 ft 9 kts 169°
2026-05-07 18:32 51.28057 6.76453 127 ft 5 kts 171°
2026-05-07 18:32 51.28027 6.76432 127 ft 4 kts 205°
2026-05-07 18:33 51.28019 6.76425 128 ft 0 kts 206°
2026-05-07 18:45 51.28018 6.76424 131 ft 0 kts 207°